[[{"header":{"parameterUnit":"m.s-1","parameterCategory":1,"la1":30.2991,"la2":30.254,"lo1":-89.0895,"lo2":-89.0444,"dy":0.0017,"dx":0.0017,"nx":28,"ny":28,"refTime":"2025-12-01T03:00:00:Z","depth":0,"parameterNumber":2,"parameterNumberName":"U-component_of_WINDS"},"data":[0,0,0,0,0,0,0,0,0,0,0,0,0,0,0,0,0,0,0,0,0,0,0,0,0,0,0,0,0,0,0,0,0,0,0,0,0,0,0,0,0,0,0,0,0,0,0,0,0,0,0,0,0,0,0,0,0,0,2.8328,2.8328,0,2.8341,2.8342,2.8342,2.8299,2.8298,2.8297,2.8295,2.8309,2.8311,2.8312,0,0,0,0,0,0,0,0,0,0,0,0,0,2.8267,2.8269,2.8328,2.8328,2.8328,2.8341,2.8342,2.8342,2.8299,2.8298,2.8296,2.8295,2.8309,2.831,2.8312,0,0,0,0,0,0,0,0,0,0,0,0,0,2.8289,2.8269,2.8328,2.8309,2.8307,2.8341,2.8342,2.8342,2.83,2.8298,2.8296,2.8294,2.8308,2.831,2.8313,2.8366,0,0,2.832,2.8321,0,0,0,0,0,0,0,0,2.8287,2.8291,2.8311,2.831,2.8308,2.8317,2.8325,2.835,2.83,2.8303,2.8295,2.8293,2.8313,2.8315,2.8322,2.8366,2.8367,2.832,2.8321,2.8322,2.8323,0,0,0,0,0,0,0,2.8286,2.829,2.8333,2.8312,2.831,2.83,2.8301,2.833,2.8319,2.8302,2.8299,2.8301,2.8312,2.832,2.8322,2.8367,2.832,2.8322,2.8323,2.8324,2.8459,2.8461,0,0,0,0,0,0,2.8287,2.8289,2.8333,2.8334,2.8293,2.8303,2.8304,2.8316,2.8318,2.8317,2.8303,2.8299,2.8316,2.8319,2.8322,2.8386,2.8322,2.8324,2.8326,2.8456,2.8459,2.8461,0,0,0,0,0,0,2.8286,2.8291,2.8332,2.8311,2.8315,2.8306,2.832,2.8317,2.8325,2.8319,2.8317,2.8313,2.8315,2.8319,2.8356,2.8386,2.8326,2.8328,2.8454,2.8457,2.846,2.8513,0,0,0,0,0,0,2.8284,2.8291,2.8311,2.8311,2.8316,2.8365,2.8322,2.8319,2.8329,2.8324,2.8327,2.8326,2.8314,2.8352,2.8358,2.8388,2.833,2.8451,2.8455,2.8459,2.8509,2.8518,2.8526,0,0,0,0,0,2.8282,2.8324,2.8312,2.8317,2.8341,2.8367,2.837,2.8355,2.8331,2.8352,2.8348,2.8326,2.8382,2.8357,2.8362,2.8393,2.8449,2.8454,2.8459,2.8505,2.8516,2.8525,0,0,0,0,0,0,2.8327,2.8324,2.831,2.8354,2.8361,2.836,2.8384,2.8367,2.8381,2.8376,2.8358,2.8359,2.84,2.84,2.8372,2.8446,2.8411,2.8418,2.8444,2.8455,2.8463,2.8462,2.8331,0,0,0,0,0,2.8342,2.8363,2.836,2.8399,2.8403,2.8394,2.8404,2.8393,2.84,2.8402,2.8401,2.8409,2.8429,2.8442,2.8459,2.8509,2.851,2.8533,2.8542,2.8549,2.8554,2.8583,2.8594,2.8477,2.8477,2.8477,0,0,2.8372,2.8374,2.8388,2.8408,2.8412,2.8436,2.8396,2.8422,2.844,2.8406,2.8442,2.8442,2.8449,2.8493,2.8513,2.8495,2.8587,2.8555,2.8561,2.8562,2.8589,2.86,2.861,2.8481,2.848,2.848,0,0,2.8441,2.8444,2.8477,2.8483,2.8491,2.8484,2.8493,2.8495,2.8494,2.8529,2.8505,2.8526,2.8559,2.8566,2.8574,2.8648,2.8629,2.8655,2.8699,2.8727,2.8736,2.8744,2.8772,2.8782,2.866,2.8661,2.8661,0,2.8478,2.8512,2.8497,2.8525,2.8535,2.8507,2.8542,2.8548,2.8561,2.8569,2.8549,2.8592,2.8595,2.8641,2.866,2.8666,2.8676,2.8654,2.8736,2.8744,2.8751,2.8778,2.8788,2.8664,2.8663,2.8663,2.8663,0,2.8559,2.8583,2.861,2.8624,2.8637,2.8668,2.8658,2.8673,2.8661,2.8657,2.8695,2.8698,2.8716,2.8726,2.8714,2.8772,2.8761,2.8739,2.8703,2.8766,2.879,2.88,2.8668,2.8667,2.8666,2.8665,0,0,2.8654,2.8661,2.8671,2.8678,2.8686,2.8704,2.8736,2.8754,2.8768,2.8779,2.8805,2.8835,2.8816,2.8825,2.8814,2.8838,2.8899,2.8813,2.8813,2.883,2.8965,2.8982,2.8994,2.8886,2.8888,2.889,2.8965,0,2.8723,2.8776,2.8764,2.8817,2.884,2.8815,2.8842,2.885,2.8848,2.8868,2.8865,2.8888,2.8859,2.8865,2.8888,2.8887,2.8926,2.8881,2.8912,2.8913,2.8911,2.9006,2.9024,2.9094,2.8974,2.8976,2.8977,0,2.8809,2.8824,2.888,2.8886,2.8895,2.892,2.8937,2.8956,2.8966,2.8963,2.8974,2.8959,2.8991,2.8956,2.9,2.897,2.8982,2.8983,2.8986,2.8988,2.8949,2.9012,2.9116,2.9127,2.8991,2.899,2.8989,0,2.8875,2.8909,2.8947,2.8954,2.8961,2.898,2.8984,2.8991,2.9004,2.9019,2.9028,2.9047,2.9057,2.9073,2.9063,2.9038,2.911,2.9074,2.911,2.911,2.9126,2.9125,2.9234,2.9133,2.9132,2.9132,2.9132,0,2.8953,2.8988,2.8977,2.9001,2.904,2.9026,2.9066,2.9067,2.9074,2.9098,2.9078,2.9101,2.9087,2.9109,2.9102,2.9141,2.9146,2.9145,2.9143,2.9147,2.9148,2.9155,2.915,2.9135,2.9134,2.9134,2.9133,0,2.9033,2.9027,2.9067,2.9071,2.9073,2.9102,2.9107,2.9129,2.9126,2.9157,2.9164,2.9159,2.9185,2.9177,2.9204,2.92,2.925,2.9241,2.9247,2.9245,2.9282,2.9279,2.94,2.9416,2.9303,2.9304,2.9305,0,2.9083,2.911,2.9118,2.9133,2.9139,2.9163,2.9176,2.9165,2.918,2.9194,2.9215,2.9239,2.9257,2.93,2.9299,2.9321,2.9313,2.9354,2.9316,2.932,2.9315,2.9314,2.9317,2.9361,2.9363,2.9364,2.9364,0,2.9174,2.917,2.919,2.9211,2.9228,2.9243,2.9256,2.9269,2.9259,2.9277,2.9303,2.9318,2.9347,2.9371,2.9391,2.9396,2.9379,2.9377,2.9386,2.9391,2.9394,2.9394,2.9268,2.9374,2.9373,2.9372,2.9372,2.9371,2.9241,2.9265,2.9275,2.9299,2.9308,2.9321,2.9343,2.9344,2.9366,2.9389,2.9381,2.9411,2.9422,2.9447,2.9455,2.9479,2.9464,2.9477,2.9481,2.9485,2.949,2.939,2.9483,2.9482,2.9482,2.9482,2.9482,0,2.9332,2.9338,2.936,2.938,2.94,2.9383,2.9397,2.9414,2.9442,2.9453,2.9473,2.9504,2.9528,2.9531,2.9554,2.9573,2.9566,2.9579,2.9578,2.958,2.9502,2.9492,2.9585,2.9585,2.9585,2.9585,2.9585,2.9585,2.9382,2.9421,2.9419,2.9464,2.9469,2.9499,2.9509,2.9522,2.9531,2.9568,2.9588,2.9589,2.9598,2.9622,2.9644,2.9644,2.9654,2.9671,2.9668,2.9595,2.9585,2.9575,2.9566,2.9673,2.9673,2.9745,2.9745,2.9746]},{"header":{"parameterUnit":"m.s-1","parameterCategory":1,"la1":30.2991,"la2":30.254,"lo1":-89.0895,"lo2":-89.0444,"dy":0.0017,"dx":0.0017,"nx":28,"ny":28,"refTime":"2025-12-01T03:00:00:Z","depth":0,"parameterNumber":3,"parameterNumberName":"V-component_of_WINDS"},"data":[0,0,0,0,0,0,0,0,0,0,0,0,0,0,0,0,0,0,0,0,0,0,0,0,0,0,0,0,0,0,0,0,0,0,0,0,0,0,0,0,0,0,0,0,0,0,0,0,0,0,0,0,0,0,0,0,0,0,-6.3989,-6.399,0,-6.409,-6.4091,-6.4092,-6.4086,-6.4085,-6.4083,-6.4082,-6.4179,-6.4183,-6.4187,0,0,0,0,0,0,0,0,0,0,0,0,0,-6.3787,-6.3791,-6.3989,-6.399,-6.3992,-6.409,-6.4091,-6.4093,-6.4086,-6.4085,-6.4083,-6.4081,-6.4178,-6.4182,-6.4187,0,0,0,0,0,0,0,0,0,0,0,0,0,-6.388,-6.3792,-6.3989,-6.4001,-6.4003,-6.409,-6.4091,-6.4093,-6.4087,-6.4085,-6.4082,-6.408,-6.4176,-6.4182,-6.4188,-6.4268,0,0,-6.4206,-6.4208,0,0,0,0,0,0,0,0,-6.3875,-6.3887,-6.3998,-6.4,-6.4002,-6.4073,-6.4056,-6.4151,-6.4087,-6.4055,-6.4082,-6.4079,-6.4145,-6.4154,-6.4177,-6.4272,-6.4276,-6.4206,-6.421,-6.4212,-6.4214,0,0,0,0,0,0,0,-6.3868,-6.3883,-6.4029,-6.3999,-6.4002,-6.4,-6.401,-6.4074,-6.4111,-6.4057,-6.4057,-6.407,-6.4146,-6.4171,-6.4179,-6.4278,-6.4206,-6.4211,-6.4215,-6.4217,-6.4447,-6.4449,0,0,0,0,0,0,-6.386,-6.3878,-6.4026,-6.4032,-6.3932,-6.4005,-6.4017,-6.4053,-6.411,-6.4117,-6.4071,-6.4069,-6.4162,-6.4172,-6.4183,-6.4282,-6.4212,-6.4218,-6.4221,-6.4444,-6.4447,-6.445,0,0,0,0,0,0,-6.3856,-6.3873,-6.4021,-6.3955,-6.3974,-6.4011,-6.4051,-6.4056,-6.4081,-6.4121,-6.4127,-6.4091,-6.4161,-6.4174,-6.4248,-6.4285,-6.4221,-6.4226,-6.4441,-6.4445,-6.4448,-6.448,0,0,0,0,0,0,-6.385,-6.3872,-6.3903,-6.3956,-6.3977,-6.4086,-6.4053,-6.4059,-6.4092,-6.409,-6.414,-6.4147,-6.416,-6.4239,-6.4254,-6.4292,-6.4231,-6.4438,-6.4443,-6.4447,-6.4475,-6.4484,-6.4492,0,0,0,0,0,-6.3843,-6.3906,-6.3905,-6.3923,-6.4018,-6.4088,-6.41,-6.4117,-6.4095,-6.4127,-6.4153,-6.4145,-6.4279,-6.4247,-6.4263,-6.4304,-6.4435,-6.4441,-6.4447,-6.4472,-6.4482,-6.4491,0,0,0,0,0,0,-6.3854,-6.3913,-6.3912,-6.3995,-6.4037,-6.4087,-6.4127,-6.4127,-6.4174,-6.417,-6.4186,-6.4198,-6.4272,-6.4295,-6.4258,-6.4386,-6.4354,-6.4363,-6.4368,-6.4378,-6.4386,-6.4378,-6.4236,0,0,0,0,0,-6.3866,-6.392,-6.3968,-6.4036,-6.4058,-6.4089,-6.412,-6.413,-6.4173,-6.419,-6.4221,-6.4262,-6.4314,-6.4347,-6.4396,-6.4479,-6.4491,-6.4515,-6.4523,-6.453,-6.4537,-6.4585,-6.4597,-6.4469,-6.4469,-6.4468,0,0,-6.3891,-6.3931,-6.3963,-6.404,-6.4073,-6.4128,-6.4104,-6.4162,-6.4203,-6.4198,-6.4271,-6.4295,-6.4342,-6.4421,-6.4457,-6.4443,-6.4576,-6.4537,-6.4542,-6.4546,-6.4592,-6.4604,-6.4615,-6.4473,-6.4472,-6.4471,0,0,-6.3966,-6.4001,-6.4062,-6.4098,-6.4151,-6.4172,-6.4187,-6.4238,-6.4255,-6.4329,-6.4327,-6.4375,-6.4463,-6.4497,-6.4526,-6.4618,-6.4613,-6.4633,-6.4675,-6.4721,-6.4731,-6.474,-6.4773,-6.4785,-6.4641,-6.4641,-6.4641,0,-6.399,-6.4074,-6.4093,-6.4154,-6.4188,-6.419,-6.4252,-6.4285,-6.435,-6.4373,-6.4357,-6.447,-6.4501,-6.4589,-6.4612,-6.4635,-6.4652,-6.4627,-6.4728,-6.4737,-6.4746,-6.4778,-6.4791,-6.4643,-6.4643,-6.4643,-6.4642,0,-6.4102,-6.416,-6.4204,-6.427,-6.4309,-6.437,-6.4398,-6.4435,-6.4442,-6.4465,-6.454,-6.4579,-6.4637,-6.4659,-6.4664,-6.4749,-6.4738,-6.4725,-6.4693,-6.476,-6.4791,-6.4803,-6.4646,-6.4645,-6.4645,-6.4644,0,0,-6.4183,-6.4263,-6.4278,-6.431,-6.437,-6.4415,-6.4476,-6.4536,-6.4568,-6.4614,-6.4666,-6.4742,-6.4731,-6.4764,-6.4774,-6.4815,-6.4887,-6.4796,-6.4798,-6.4812,-6.4983,-6.4993,-6.5007,-6.4884,-6.4887,-6.4889,-6.4979,0,-6.4264,-6.4376,-6.4396,-6.4493,-6.4548,-6.4552,-6.4606,-6.4648,-6.4672,-6.4721,-6.4746,-6.48,-6.4781,-6.4802,-6.4842,-6.4869,-6.4921,-6.4863,-6.4932,-6.4934,-6.492,-6.5023,-6.5033,-6.5116,-6.4991,-6.4993,-6.4995,0,-6.4373,-6.4425,-6.4528,-6.4584,-6.4608,-6.4656,-6.4714,-6.4761,-6.4809,-6.4824,-6.4863,-6.4869,-6.4933,-6.49,-6.4988,-6.4948,-6.4978,-6.4996,-6.4999,-6.5006,-6.4968,-6.5032,-6.5143,-6.5156,-6.5014,-6.5012,-6.5011,0,-6.4423,-6.4519,-6.4594,-6.462,-6.4687,-6.4721,-6.475,-6.4796,-6.4832,-6.4882,-6.4906,-6.4962,-6.4992,-6.5035,-6.5057,-6.5031,-6.5144,-6.5112,-6.5157,-6.5157,-6.518,-6.5178,-6.5297,-6.5199,-6.5199,-6.5199,-6.5198,0,-6.4512,-6.4574,-6.4618,-6.4664,-6.4735,-6.4758,-6.4827,-6.4855,-6.4898,-6.4949,-6.4955,-6.5002,-6.5028,-6.5079,-6.5095,-6.5167,-6.518,-6.5193,-6.5197,-6.5193,-6.5191,-6.5212,-6.5207,-6.5202,-6.5201,-6.5201,-6.52,0,-6.4579,-6.4611,-6.4693,-6.4751,-6.4767,-6.4817,-6.4866,-6.491,-6.4935,-6.4999,-6.5016,-6.5054,-6.5115,-6.5141,-6.5214,-6.5226,-6.5308,-6.5307,-6.5292,-6.5293,-6.5337,-6.5333,-6.5474,-6.5494,-6.5382,-6.5383,-6.5384,0,-6.4633,-6.4683,-6.4747,-6.4783,-6.4814,-6.4871,-6.4909,-6.4935,-6.4973,-6.5035,-6.5072,-6.5134,-6.5184,-6.5281,-6.5314,-6.5371,-6.5372,-6.5417,-6.538,-6.5375,-6.5373,-6.537,-6.5376,-6.5424,-6.5425,-6.5426,-6.5426,0,-6.4727,-6.4741,-6.4796,-6.4858,-6.4904,-6.4953,-6.5001,-6.5029,-6.5062,-6.5105,-6.517,-6.5209,-6.5287,-6.5348,-6.5408,-6.5436,-6.5437,-6.5439,-6.5452,-6.5448,-6.5438,-6.5445,-6.5311,-6.5435,-6.5434,-6.5433,-6.5433,-6.5432,-6.479,-6.4835,-6.4888,-6.495,-6.499,-6.5036,-6.5081,-6.5114,-6.5168,-6.5235,-6.5246,-6.5315,-6.5364,-6.5445,-6.5476,-6.5529,-6.5518,-6.5537,-6.5542,-6.5546,-6.555,-6.543,-6.554,-6.554,-6.554,-6.5539,-6.5539,0,-6.4884,-6.492,-6.4977,-6.5046,-6.5095,-6.5095,-6.5149,-6.5189,-6.525,-6.5297,-6.5349,-6.5423,-6.5483,-6.5523,-6.5584,-6.5619,-6.5621,-6.5634,-6.5631,-6.5638,-6.5556,-6.5539,-6.5631,-6.5631,-6.5631,-6.5631,-6.5631,-6.5631,-6.4939,-6.5016,-6.5037,-6.5134,-6.5169,-6.5238,-6.5269,-6.5311,-6.5349,-6.5433,-6.5485,-6.5511,-6.5555,-6.562,-6.5675,-6.5686,-6.5708,-6.5721,-6.5731,-6.5653,-6.5643,-6.5634,-6.5618,-6.5726,-6.5726,-6.5809,-6.5809,-6.581]}]]